QPF
0.10 0.09 0.11 0.11 0.11 0.11 0.11 0.12 0.13 0.11 0.11 0.10 0.10 0.12 0.13 0.14 0.14 0.16 0.14 0.14 0.15 0.15 0.12 0.11 0.11 0.12 0.11 0.10 0.11 0.11 0.12 0.14 0.14 0.10 0.12 0.12 0.11 0.11 0.11 0.09 0.06 0.06 0.07
0.09 0.09 0.10 0.10 0.10 0.09 0.09 0.10 0.12 0.11 0.09 0.09 0.08 0.08 0.08 0.09 0.11 0.14 0.16 0.18 0.18 0.16 0.15 0.16 0.15 0.13 0.14 0.13 0.13 0.11 0.11 0.13 0.14 0.12 0.12 0.12 0.11 0.10 0.10 0.10 0.08 0.06 0.07
0.07 0.09 0.09 0.11 0.09 0.07 0.08 0.09 0.10 0.11 0.11 0.09 0.08 0.09 0.11 0.12 0.14 0.14 0.14 0.14 0.16 0.16 0.16 0.15 0.14 0.12 0.12 0.11 0.10 0.10 0.10 0.12 0.16 0.15 0.13 0.13 0.12 0.10 0.10 0.10 0.09 0.09 0.09
0.07 0.09 0.09 0.09 0.08 0.08 0.09 0.11 0.10 0.10 0.11 0.11 0.09 0.09 0.11 0.12 0.11 0.10 0.09 0.10 0.12 0.11 0.10 0.10 0.11 0.10 0.11 0.12 0.11 0.12 0.13 0.15 0.17 0.17 0.14 0.11 0.11 0.11 0.11 0.10 0.11 0.11 0.12
0.05 0.05 0.06 0.07 0.07 0.08 0.09 0.10 0.09 0.07 0.08 0.09 0.09 0.11 0.11 0.09 0.08 0.08 0.08 0.08 0.09 0.09 0.09 0.08 0.07 0.08 0.09 0.09 0.08 0.08 0.09 0.11 0.13 0.13 0.10 0.08 0.09 0.10 0.10 0.10 0.10 0.10 0.11
0.06 0.07 0.09 0.10 0.09 0.07 0.07 0.07 0.05 0.06 0.07 0.07 0.06 0.07 0.09 0.07 0.10 0.09 0.08 0.09 0.09 0.08 0.08 0.08 0.07 0.07 0.06 0.05 0.05 0.05 0.07 0.08 0.09 0.10 0.10 0.09 0.08 0.10 0.13 0.14 0.14 0.13 0.14
0.06 0.08 0.10 0.09 0.06 0.04 0.04 0.03 0.03 0.04 0.05 0.07 0.06 0.06 0.05 0.05 0.07 0.06 0.06 0.07 0.09 0.08 0.07 0.07 0.05 0.04 0.04 0.04 0.04 0.05 0.05 0.05 0.05 0.06 0.08 0.09 0.10 0.12 0.15 0.16 0.16 0.17 0.16
0.04 0.05 0.05 0.05 0.04 0.03 0.04 0.04 0.04 0.04 0.04 0.05 0.06 0.06 0.05 0.04 0.03 0.02 0.03 0.05 0.06 0.05 0.04 0.04 0.04 0.03 0.03 0.03 0.03 0.02 0.02 0.02 0.04 0.05 0.06 0.07 0.08 0.11 0.13 0.13 0.14 0.12 0.10
0.04 0.04 0.04 0.03 0.03 0.04 0.05 0.08 0.08 0.06 0.05 0.05 0.05 0.05 0.05 0.04 0.03 0.02 0.02 0.02 0.03 0.03 0.02 0.02 0.02 0.02 0.02 0.02 0.02 0.02 0.02 0.02 0.03 0.03 0.03 0.03 0.04 0.05 0.06 0.08 0.09 0.09 0.08
0.05 0.05 0.06 0.05 0.04 0.04 0.05 0.06 0.08 0.05 0.05 0.05 0.05 0.04 0.05 0.04 0.02 0.01 0.01 0.01 0.02 0.02 0.02 0.01 0.01 0.01 0.01 0.01 0.01 0.01 0.01 0.02 0.02 0.02 0.02 0.02 0.02 0.03 0.03 0.04 0.04 0.05 0.05
0.05 0.05 0.06 0.05 0.05 0.04 0.04 0.04 0.05 0.04 0.04 0.04 0.04 0.04 0.03 0.02 0.02 0.02 0.01 0.01 0.02 0.02 0.02 0.02 0.01 0.01 0.01 0.01 0.00 0.01 0.01 0.01 0.02 0.02 0.02 0.02 0.02 0.02 0.02 0.02 0.03 0.03 0.04
0.04 0.04 0.06 0.05 0.05 0.04 0.04 0.04 0.04 0.03 0.02 0.03 0.03 0.02 0.02 0.01 0.01 0.02 0.01 0.02 0.02 0.02 0.02 0.01 0.01 0.01 0.01 0.01 0.01 0.01 0.01 0.01 0.01 0.02 0.01 0.01 0.01 0.02 0.02 0.02 0.02 0.02 0.03
0.03 0.04 0.04 0.04 0.05 0.04 0.04 0.04 0.04 0.03 0.03 0.03 0.02 0.02 0.02 0.01 0.01 0.01 0.01 0.01 0.02 0.02 0.02 0.03 0.03 0.02 0.01 0.01 0.02 0.02 0.02 0.01 0.01 0.01 0.01 0.01 0.01 0.01 0.01 0.02 0.01 0.01 0.01
0.03 0.04 0.05 0.05 0.05 0.04 0.03 0.03 0.03 0.03 0.03 0.03 0.03 0.03 0.02 0.02 0.02 0.02 0.01 0.02 0.02 0.02 0.03 0.03 0.03 0.03 0.03 0.03 0.03 0.03 0.02 0.02 0.02 0.01 0.01 0.01 0.01 0.01 0.01 0.01 0.01 0.01 0.01
0.04 0.05 0.04 0.04 0.03 0.04 0.03 0.02 0.02 0.03 0.03 0.04 0.04 0.03 0.02 0.02 0.02 0.02 0.02 0.02 0.02 0.03 0.04 0.04 0.04 0.04 0.04 0.04 0.04 0.04 0.03 0.03 0.02 0.01 0.01 0.01 0.01 0.02 0.02 0.02 0.02 0.02 0.02
0.02 0.03 0.02 0.02 0.02 0.02 0.02 0.02 0.03 0.03 0.04 0.04 0.04 0.03 0.03 0.03 0.03 0.03 0.02 0.02 0.03 0.04 0.04 0.04 0.05 0.05 0.06 0.06 0.04 0.03 0.02 0.01 0.01 0.01 0.01 0.01 0.01 0.01 0.01 0.02 0.02 0.02 0.01
0.02 0.02 0.02 0.02 0.02 0.03 0.03 0.04 0.04 0.04 0.04 0.03 0.03 0.03 0.03 0.04 0.04 0.04 0.03 0.03 0.03 0.03 0.03 0.04 0.05 0.05 0.04 0.03 0.02 0.01 0.01 0.01 0.01 0.01 0.01 0.02 0.02 0.02 0.02 0.02 0.02 0.02 0.02
0.03 0.03 0.03 0.03 0.03 0.03 0.03 0.04 0.05 0.05 0.04 0.04 0.04 0.04 0.03 0.03 0.03 0.03 0.02 0.02 0.02 0.01 0.01 0.02 0.02 0.02 0.02 0.02 0.02 0.02 0.03 0.03 0.03 0.03 0.03 0.03 0.03 0.02 0.02 0.02 0.02 0.02 0.02
0.03 0.03 0.05 0.05 0.05 0.05 0.05 0.04 0.03 0.04 0.04 0.03 0.02 0.03 0.02 0.02 0.02 0.02 0.02 0.01 0.01 0.01 0.01 0.01 0.01 0.02 0.02 0.03 0.03 0.03 0.04 0.04 0.03 0.03 0.03 0.02 0.02 0.01 0.01 0.01 0.01 0.01 0.01
0.04 0.07 0.06 0.06 0.06 0.05 0.05 0.04 0.04 0.04 0.04 0.03 0.02 0.02 0.01 0.01 0.01 0.01 0.01 0.02 0.02 0.01 0.01 0.01 0.01 0.02 0.02 0.02 0.02 0.02 0.02 0.02 0.02 0.02 0.02 0.02 0.01 0.01 0.01 0.00 0.00 0.00 0.00
0.04 0.05 0.05 0.04 0.03 0.03 0.03 0.02 0.02 0.02 0.02 0.01 0.01 0.01 0.01 0.01 0.01 0.01 0.01 0.01 0.01 0.01 0.01 0.01 0.01 0.01 0.01 0.01 0.02 0.02 0.02 0.01 0.01 0.01 0.01 0.01 0.00 0.00 0.00 0.00 0.00 0.00 0.00
0.03 0.03 0.03 0.03 0.02 0.02 0.02 0.01 0.01 0.01 0.01 0.01 0.00 0.01 0.01 0.01 0.01 0.01 0.01 0.02 0.02 0.01 0.01 0.01 0.01 0.01 0.01 0.02 0.02 0.02 0.01 0.01 0.01 0.01 0.00 0.00 0.00 0.00 0.00 0.00 0.00 0.00 0.00
0.03 0.02 0.03 0.03 0.02 0.02 0.01 0.01 0.01 0.01 0.01 0.01 0.01 0.00 0.00 0.01 0.01 0.02 0.02 0.03 0.03 0.02 0.02 0.01 0.02 0.02 0.01 0.01 0.01 0.01 0.01 0.01 0.01 0.00 0.00 0.00 0.00 0.00 0.00 0.00 0.00 0.00 0.00
0.02 0.02 0.02 0.02 0.02 0.01 0.01 0.01 0.00 0.00 0.00 0.00 0.01 0.01 0.01 0.01 0.01 0.01 0.02 0.03 0.03 0.03 0.03 0.03 0.02 0.02 0.02 0.01 0.01 0.01 0.01 0.00 0.00 0.00 0.00 0.00 0.00 0.00 0.00 0.00 0.00 0.00 0.00
0.01 0.01 0.01 0.01 0.01 0.01 0.00 0.00 0.00 0.00 0.00 0.01 0.01 0.01 0.01 0.01 0.01 0.01 0.02 0.02 0.03 0.03 0.03 0.02 0.02 0.01 0.01 0.01 0.00 0.00 0.00 0.00 0.00 0.00 0.00 0.00 0.00 0.00 0.00 0.00 0.00 0.00 0.00
0.01 0.01 0.01 0.01 0.01 0.01 0.01 0.01 0.01 0.01 0.00 0.00 0.00 0.00 0.00 0.01 0.01 0.01 0.02 0.02 0.02 0.02 0.02 0.02 0.02 0.02 0.02 0.01 0.01 0.01 0.01 0.01 0.00 0.00 0.00 0.00 0.00 0.00 0.00 0.00 0.00 0.00 0.00
MSLP
1013.80 1014.09 1014.37 1014.61 1014.79 1014.90 1014.96 1014.97 1014.95 1014.92 1014.89 1014.88 1014.89 1014.90 1014.90 1014.88 1014.82 1014.73 1014.62 1014.49 1014.39 1014.34 1014.36 1014.47 1014.67 1014.96 1015.32 1015.73 1016.14 1016.53 1016.87 1017.15 1017.35 1017.48 1017.54 1017.56 1017.55 1017.54 1017.56 1017.63 1017.76 1017.96 1018.24
1013.63 1013.96 1014.26 1014.53 1014.75 1014.92 1015.03 1015.10 1015.13 1015.14 1015.14 1015.14 1015.13 1015.10 1015.05 1014.96 1014.83 1014.65 1014.44 1014.22 1014.02 1013.87 1013.79 1013.81 1013.93 1014.15 1014.47 1014.86 1015.28 1015.72 1016.14 1016.51 1016.83 1017.08 1017.27 1017.41 1017.52 1017.62 1017.74 1017.89 1018.10 1018.38 1018.72
1013.55 1013.94 1014.30 1014.62 1014.90 1015.13 1015.31 1015.44 1015.53 1015.59 1015.62 1015.63 1015.62 1015.56 1015.47 1015.32 1015.11 1014.86 1014.56 1014.25 1013.95 1013.70 1013.52 1013.43 1013.45 1013.59 1013.83 1014.16 1014.56 1014.99 1015.43 1015.86 1016.25 1016.59 1016.88 1017.14 1017.37 1017.59 1017.83 1018.11 1018.43 1018.82 1019.26
1013.55 1014.03 1014.47 1014.86 1015.20 1015.49 1015.73 1015.92 1016.07 1016.18 1016.25 1016.28 1016.27 1016.20 1016.08 1015.88 1015.63 1015.31 1014.95 1014.58 1014.20 1013.87 1013.60 1013.42 1013.35 1013.39 1013.54 1013.79 1014.12 1014.50 1014.91 1015.33 1015.74 1016.13 1016.49 1016.83 1017.16 1017.50 1017.87 1018.27 1018.72 1019.23 1019.79
1013.60 1014.17 1014.70 1015.16 1015.56 1015.90 1016.19 1016.44 1016.63 1016.79 1016.90 1016.96 1016.96 1016.90 1016.76 1016.56 1016.28 1015.94 1015.56 1015.15 1014.74 1014.37 1014.05 1013.81 1013.67 1013.63 1013.69 1013.85 1014.09 1014.38 1014.72 1015.08 1015.46 1015.83 1016.21 1016.60 1017.00 1017.42 1017.89 1018.40 1018.97 1019.59 1020.25
1013.64 1014.31 1014.91 1015.43 1015.88 1016.27 1016.60 1016.87 1017.11 1017.30 1017.44 1017.53 1017.56 1017.52 1017.41 1017.22 1016.96 1016.64 1016.27 1015.88 1015.49 1015.12 1014.81 1014.55 1014.38 1014.29 1014.28 1014.36 1014.50 1014.69 1014.93 1015.21 1015.50 1015.83 1016.17 1016.55 1016.97 1017.44 1017.97 1018.55 1019.20 1019.89 1020.62
1013.64 1014.39 1015.05 1015.62 1016.10 1016.50 1016.85 1017.15 1017.40 1017.62 1017.79 1017.92 1017.99 1017.99 1017.91 1017.77 1017.56 1017.30 1016.99 1016.66 1016.34 1016.04 1015.77 1015.55 1015.39 1015.29 1015.25 1015.26 1015.32 1015.42 1015.55 1015.72 1015.92 1016.15 1016.43 1016.77 1017.16 1017.62 1018.16 1018.77 1019.44 1020.16 1020.91
1013.60 1014.40 1015.10 1015.69 1016.17 1016.58 1016.93 1017.23 1017.49 1017.73 1017.93 1018.09 1018.20 1018.26 1018.25 1018.17 1018.04 1017.86 1017.65 1017.42 1017.20 1016.99 1016.81 1016.67 1016.56 1016.49 1016.45 1016.43 1016.44 1016.46 1016.50 1016.57 1016.66 1016.81 1017.00 1017.26 1017.59 1018.01 1018.51 1019.09 1019.73 1020.42 1021.13
1013.55 1014.37 1015.07 1015.66 1016.14 1016.54 1016.87 1017.17 1017.44 1017.69 1017.91 1018.11 1018.27 1018.39 1018.45 1018.45 1018.41 1018.33 1018.22 1018.10 1017.99 1017.90 1017.82 1017.77 1017.74 1017.71 1017.70 1017.68 1017.66 1017.64 1017.62 1017.61 1017.62 1017.68 1017.79 1017.97 1018.23 1018.58 1019.01 1019.51 1020.08 1020.70 1021.32
1013.52 1014.34 1015.04 1015.61 1016.07 1016.45 1016.78 1017.07 1017.34 1017.61 1017.86 1018.10 1018.31 1018.48 1018.61 1018.69 1018.73 1018.74 1018.72 1018.70 1018.69 1018.69 1018.71 1018.74 1018.78 1018.81 1018.84 1018.84 1018.82 1018.78 1018.73 1018.68 1018.64 1018.64 1018.68 1018.80 1018.99 1019.26 1019.61 1020.02 1020.50 1021.00 1021.51
1013.56 1014.36 1015.04 1015.60 1016.05 1016.42 1016.74 1017.04 1017.33 1017.61 1017.90 1018.18 1018.43 1018.66 1018.84 1018.98 1019.08 1019.15 1019.20 1019.25 1019.30 1019.36 1019.44 1019.52 1019.61 1019.69 1019.74 1019.77 1019.77 1019.74 1019.69 1019.62 1019.57 1019.54 1019.55 1019.63 1019.76 1019.97 1020.24 1020.57 1020.94 1021.32 1021.71
1013.67 1014.45 1015.11 1015.66 1016.11 1016.49 1016.82 1017.14 1017.46 1017.78 1018.10 1018.42 1018.72 1018.98 1019.21 1019.38 1019.52 1019.62 1019.69 1019.76 1019.82 1019.90 1019.99 1020.09 1020.19 1020.28 1020.35 1020.40 1020.42 1020.41 1020.38 1020.34 1020.30 1020.28 1020.29 1020.35 1020.46 1020.62 1020.83 1021.08 1021.36 1021.64 1021.92
1013.82 1014.57 1015.23 1015.78 1016.25 1016.65 1017.02 1017.38 1017.74 1018.11 1018.48 1018.85 1019.18 1019.48 1019.73 1019.92 1020.06 1020.15 1020.21 1020.25 1020.29 1020.33 1020.38 1020.45 1020.53 1020.61 1020.68 1020.73 1020.77 1020.78 1020.78 1020.78 1020.77 1020.78 1020.81 1020.88 1020.99 1021.14 1021.31 1021.51 1021.71 1021.92 1022.11
1013.93 1014.67 1015.33 1015.90 1016.41 1016.86 1017.29 1017.70 1018.13 1018.56 1018.98 1019.39 1019.76 1020.08 1020.34 1020.53 1020.65 1020.71 1020.72 1020.71 1020.68 1020.66 1020.65 1020.66 1020.68 1020.72 1020.77 1020.82 1020.86 1020.90 1020.93 1020.96 1021.00 1021.05 1021.12 1021.21 1021.33 1021.47 1021.63 1021.80 1021.96 1022.11 1022.25
1013.94 1014.68 1015.35 1015.95 1016.51 1017.02 1017.52 1018.01 1018.51 1019.00 1019.48 1019.93 1020.33 1020.67 1020.93 1021.10 1021.20 1021.22 1021.18 1021.10 1021.00 1020.90 1020.81 1020.75 1020.71 1020.70 1020.72 1020.75 1020.79 1020.84 1020.90 1020.97 1021.05 1021.13 1021.23 1021.35 1021.48 1021.63 1021.78 1021.93 1022.08 1022.21 1022.31
1013.80 1014.53 1015.22 1015.87 1016.48 1017.07 1017.64 1018.21 1018.77 1019.33 1019.86 1020.35 1020.78 1021.12 1021.38 1021.54 1021.61 1021.59 1021.50 1021.36 1021.20 1021.04 1020.89 1020.77 1020.68 1020.63 1020.62 1020.64 1020.68 1020.74 1020.82 1020.91 1021.01 1021.11 1021.23 1021.36 1021.50 1021.64 1021.79 1021.93 1022.07 1022.19 1022.30
1013.52 1014.25 1014.96 1015.65 1016.32 1016.97 1017.62 1018.25 1018.87 1019.48 1020.05 1020.56 1021.01 1021.36 1021.62 1021.76 1021.81 1021.76 1021.65 1021.47 1021.28 1021.08 1020.90 1020.75 1020.64 1020.58 1020.56 1020.58 1020.63 1020.70 1020.79 1020.88 1020.99 1021.10 1021.21 1021.33 1021.45 1021.58 1021.71 1021.84 1021.98 1022.10 1022.22
1013.18 1013.90 1014.63 1015.36 1016.07 1016.78 1017.48 1018.16 1018.82 1019.46 1020.05 1020.57 1021.02 1021.37 1021.61 1021.75 1021.78 1021.73 1021.61 1021.44 1021.24 1021.05 1020.88 1020.74 1020.65 1020.60 1020.60 1020.64 1020.70 1020.78 1020.87 1020.97 1021.06 1021.15 1021.24 1021.32 1021.41 1021.51 1021.62 1021.73 1021.86 1021.99 1022.12
1012.90 1013.62 1014.35 1015.10 1015.85 1016.59 1017.31 1018.02 1018.70 1019.34 1019.92 1020.43 1020.86 1021.18 1021.41 1021.54 1021.58 1021.53 1021.43 1021.28 1021.12 1020.97 1020.85 1020.76 1020.72 1020.72 1020.76 1020.83 1020.92 1021.02 1021.11 1021.20 1021.27 1021.32 1021.37 1021.40 1021.45 1021.50 1021.57 1021.66 1021.77 1021.90 1022.05
1012.82 1013.52 1014.26 1015.01 1015.76 1016.51 1017.24 1017.94 1018.60 1019.21 1019.76 1020.23 1020.62 1020.91 1021.12 1021.23 1021.27 1021.24 1021.17 1021.07 1020.97 1020.89 1020.83 1020.82 1020.85 1020.92 1021.03 1021.15 1021.28 1021.39 1021.49 1021.56 1021.60 1021.62 1021.61 1021.59 1021.58 1021.58 1021.60 1021.66 1021.75 1021.87 1022.02
1013.02 1013.71 1014.43 1015.17 1015.90 1016.63 1017.33 1017.99 1018.61 1019.16 1019.65 1020.06 1020.39 1020.64 1020.81 1020.91 1020.95 1020.94 1020.90 1020.86 1020.83 1020.82 1020.86 1020.93 1021.05 1021.19 1021.36 1021.54 1021.71 1021.85 1021.95 1022.01 1022.03 1022.00 1021.95 1021.88 1021.81 1021.76 1021.74 1021.75 1021.82 1021.93 1022.07
1013.54 1014.20 1014.89 1015.59 1016.29 1016.97 1017.61 1018.21 1018.75 1019.23 1019.64 1019.98 1020.25 1020.44 1020.57 1020.65 1020.68 1020.69 1020.69 1020.70 1020.73 1020.80 1020.91 1021.06 1021.26 1021.48 1021.71 1021.94 1022.14 1022.30 1022.42 1022.47 1022.47 1022.42 1022.32 1022.21 1022.10 1022.00 1021.94 1021.92 1021.96 1022.05 1022.18
1014.30 1014.92 1015.57 1016.22 1016.86 1017.46 1018.03 1018.55 1019.00 1019.39 1019.72 1019.98 1020.18 1020.32 1020.41 1020.46 1020.49 1020.52 1020.54 1020.59 1020.67 1020.80 1020.97 1021.19 1021.44 1021.71 1021.99 1022.26 1022.49 1022.67 1022.80 1022.85 1022.84 1022.78 1022.66 1022.53 1022.38 1022.26 1022.17 1022.12 1022.13 1022.19 1022.30
1015.18 1015.74 1016.32 1016.89 1017.45 1017.97 1018.45 1018.88 1019.24 1019.55 1019.80 1019.99 1020.13 1020.23 1020.29 1020.33 1020.36 1020.39 1020.44 1020.52 1020.63 1020.80 1021.00 1021.26 1021.54 1021.84 1022.15 1022.43 1022.69 1022.88 1023.02 1023.08 1023.08 1023.01 1022.90 1022.76 1022.61 1022.46 1022.35 1022.29 1022.26 1022.29 1022.36
1015.99 1016.48 1016.97 1017.46 1017.92 1018.35 1018.74 1019.07 1019.36 1019.59 1019.78 1019.92 1020.03 1020.10 1020.15 1020.19 1020.23 1020.27 1020.34 1020.43 1020.57 1020.74 1020.96 1021.22 1021.51 1021.82 1022.13 1022.42 1022.68 1022.89 1023.04 1023.12 1023.13 1023.08 1022.99 1022.86 1022.71 1022.57 1022.45 1022.36 1022.31 1022.30 1022.33
1016.60 1017.00 1017.40 1017.78 1018.15 1018.48 1018.78 1019.03 1019.26 1019.44 1019.59 1019.71 1019.81 1019.88 1019.94 1019.99 1020.05 1020.11 1020.19 1020.30 1020.43 1020.61 1020.82 1021.07 1021.34 1021.64 1021.93 1022.22 1022.48 1022.70 1022.86 1022.96 1023.00 1022.98 1022.91 1022.81 1022.68 1022.55 1022.42 1022.32 1022.24 1022.19 1022.17
Thickness
5771 5769 5767 5765 5764 5762 5760 5759 5758 5757 5755 5754 5753 5751 5750 5748 5747 5744 5743 5741 5739 5738 5737 5735 5733 5732 5730 5729 5728 5726 5723 5719 5711 5708 5706 5705 5703 5700 5697 5694 5691 5688 5684
5771 5768 5765 5763 5762 5760 5758 5757 5756 5754 5753 5751 5749 5747 5746 5744 5743 5740 5737 5736 5734 5732 5731 5729 5727 5727 5724 5723 5721 5720 5718 5716 5710 5703 5699 5697 5695 5693 5690 5687 5683 5679 5675
5771 5766 5763 5761 5759 5757 5756 5754 5753 5751 5749 5747 5745 5743 5741 5739 5737 5735 5733 5731 5729 5727 5725 5723 5721 5719 5717 5716 5715 5713 5711 5710 5706 5700 5694 5691 5687 5685 5681 5678 5675 5671 5667
5770 5765 5761 5758 5756 5754 5753 5751 5749 5747 5744 5742 5740 5738 5735 5733 5731 5729 5727 5725 5723 5722 5720 5717 5715 5713 5711 5710 5708 5705 5704 5701 5698 5694 5688 5684 5680 5677 5673 5669 5664 5661 5658
5768 5763 5759 5756 5753 5751 5748 5746 5744 5742 5739 5737 5734 5732 5729 5727 5724 5722 5721 5719 5717 5714 5712 5710 5707 5705 5704 5702 5700 5698 5696 5693 5690 5686 5680 5675 5671 5667 5664 5661 5656 5652 5647
5765 5761 5757 5753 5749 5746 5744 5741 5739 5736 5734 5731 5728 5725 5722 5720 5717 5716 5714 5712 5709 5706 5703 5701 5699 5696 5694 5692 5690 5688 5686 5683 5680 5677 5672 5666 5662 5658 5655 5652 5647 5642 5636
5762 5758 5754 5750 5746 5743 5740 5737 5734 5731 5728 5725 5722 5719 5714 5710 5709 5708 5707 5704 5701 5698 5695 5692 5691 5688 5685 5683 5680 5678 5675 5672 5670 5666 5661 5656 5652 5649 5645 5641 5636 5632 5627
5759 5754 5750 5746 5742 5738 5735 5731 5729 5727 5723 5719 5715 5712 5708 5703 5702 5700 5698 5696 5692 5689 5685 5683 5679 5677 5675 5673 5670 5666 5662 5659 5658 5655 5650 5646 5643 5639 5636 5632 5627 5623 5618
5755 5751 5747 5743 5738 5733 5729 5726 5723 5720 5717 5713 5709 5705 5701 5696 5694 5692 5691 5687 5683 5679 5675 5672 5670 5666 5664 5662 5660 5655 5650 5646 5643 5641 5638 5634 5631 5628 5624 5621 5616 5612 5606
5751 5748 5744 5739 5734 5728 5724 5720 5717 5714 5709 5705 5701 5697 5694 5689 5685 5684 5683 5680 5675 5670 5666 5662 5659 5656 5653 5651 5648 5644 5639 5636 5633 5629 5625 5622 5618 5615 5612 5608 5605 5600 5596
5747 5743 5738 5733 5728 5724 5719 5715 5711 5707 5702 5697 5693 5689 5686 5681 5677 5675 5673 5672 5668 5663 5658 5653 5648 5645 5642 5640 5637 5633 5629 5625 5623 5620 5615 5611 5607 5603 5599 5595 5592 5588 5584
5740 5735 5730 5726 5722 5717 5712 5708 5704 5700 5695 5690 5685 5680 5676 5672 5668 5665 5663 5661 5658 5654 5649 5643 5638 5634 5631 5629 5625 5622 5619 5616 5613 5610 5606 5601 5596 5591 5587 5583 5579 5576 5573
5730 5725 5720 5717 5713 5709 5704 5700 5696 5692 5689 5684 5678 5673 5668 5663 5658 5655 5652 5650 5647 5643 5637 5632 5627 5623 5620 5618 5614 5611 5608 5606 5603 5599 5594 5589 5585 5581 5576 5572 5568 5565 5562
5720 5715 5711 5707 5703 5699 5696 5692 5688 5685 5681 5677 5672 5666 5661 5656 5650 5646 5643 5639 5634 5630 5626 5620 5617 5614 5610 5607 5603 5600 5597 5594 5591 5587 5583 5579 5575 5571 5567 5563 5559 5556 5552
5713 5708 5704 5699 5693 5687 5681 5676 5675 5669 5667 5667 5664 5660 5654 5647 5640 5636 5635 5631 5627 5621 5616 5612 5608 5605 5601 5597 5594 5590 5587 5584 5580 5576 5572 5569 5565 5562 5558 5554 5550 5547 5543
5704 5700 5696 5690 5684 5679 5672 5664 5658 5657 5654 5652 5650 5647 5641 5636 5630 5627 5623 5620 5616 5611 5608 5604 5600 5597 5593 5589 5585 5581 5577 5573 5569 5566 5562 5559 5555 5552 5549 5545 5541 5537 5534
5696 5692 5688 5683 5677 5671 5666 5660 5652 5644 5640 5638 5636 5633 5629 5624 5620 5616 5612 5608 5605 5601 5599 5595 5591 5587 5584 5580 5576 5572 5567 5563 5559 5556 5553 5549 5546 5542 5539 5535 5532 5528 5525
5687 5683 5679 5674 5669 5664 5659 5654 5649 5643 5636 5628 5622 5619 5616 5612 5608 5605 5601 5597 5595 5592 5590 5587 5582 5578 5575 5571 5567 5562 5558 5554 5551 5547 5543 5540 5536 5533 5530 5526 5523 5518 5515
5676 5672 5669 5665 5660 5656 5651 5646 5641 5635 5629 5621 5614 5608 5604 5601 5597 5593 5590 5589 5588 5585 5583 5579 5575 5571 5567 5562 5558 5553 5550 5546 5542 5538 5534 5531 5527 5524 5521 5518 5515 5510 5507
5663 5659 5657 5654 5650 5645 5641 5636 5631 5626 5621 5615 5609 5603 5597 5594 5591 5587 5583 5582 5581 5578 5575 5572 5567 5564 5559 5555 5550 5546 5542 5538 5533 5529 5526 5523 5520 5517 5514 5511 5508 5505 5502
5653 5648 5645 5643 5639 5635 5631 5627 5623 5618 5613 5608 5603 5598 5592 5590 5586 5583 5579 5576 5574 5571 5568 5564 5560 5556 5552 5547 5543 5539 5535 5531 5526 5522 5519 5515 5512 5510 5507 5505 5502 5499 5496
5642 5639 5636 5633 5629 5625 5621 5618 5614 5610 5606 5602 5597 5590 5584 5582 5581 5577 5574 5570 5567 5564 5561 5557 5554 5549 5545 5541 5537 5532 5527 5523 5519 5515 5512 5509 5507 5504 5502 5499 5497 5494 5491
5632 5630 5626 5623 5619 5613 5611 5609 5606 5603 5599 5595 5590 5584 5579 5576 5574 5571 5567 5564 5560 5557 5553 5550 5546 5542 5538 5533 5529 5524 5520 5516 5512 5509 5506 5503 5501 5498 5496 5493 5491 5488 5485
5622 5620 5617 5614 5610 5607 5605 5602 5599 5596 5592 5588 5583 5579 5574 5570 5567 5564 5561 5557 5554 5550 5546 5542 5538 5535 5531 5526 5521 5516 5512 5509 5505 5502 5499 5496 5494 5492 5490 5487 5485 5482 5479
5614 5611 5608 5605 5603 5600 5598 5595 5592 5589 5585 5581 5577 5573 5569 5565 5561 5559 5555 5551 5547 5543 5540 5536 5532 5528 5524 5519 5514 5510 5506 5502 5499 5495 5492 5490 5488 5486 5483 5481 5479 5476 5474
5606 5603 5600 5598 5596 5594 5591 5588 5585 5582 5579 5575 5571 5567 5563 5560 5557 5554 5550 5546 5542 5538 5534 5531 5527 5523 5518 5514 5509 5505 5501 5497 5494 5490 5487 5484 5482 5480 5478 5475 5473 5472 5470